CW6018 Weather Reports


time (UTC)temp
F
wind
direction
speed
knots
gust
knots
rain 1hr
in
rain 24hr
in
rain mn
in
humidity
%
barometer
mb
20260505203419 46 203 4.3 6.1 0.00 0.00 0.00 69 1010.6
20260505202419 46 203 4.3 6.1 0.00 0.00 0.00 70 1010.6
20260505201419 46 203 5.2 7.0 0.00 0.00 0.00 68 1010.6
20260505200418 46 203 4.3 6.1 0.00 0.00 0.00 68 1010.6
20260505195419 46 248 5.2 6.1 0.00 0.00 0.00 68 1010.6
20260505194418 46 203 2.6 4.3 0.00 0.00 0.00 67 1010.6
20260505193418 46 248 5.2 7.0 0.00 0.00 0.00 66 1010.5
20260505192418 46 203 5.2 7.8 0.00 0.00 0.00 65 1010.4
20260505191418 46 203 4.3 7.8 0.00 0.00 0.00 65 1010.5
20260505190419 46 203 6.1 8.7 0.00 0.00 0.00 63 1010.4
20260505185418 47 248 7.0 8.7 0.00 0.00 0.00 63 1010.3
20260505184418 47 203 7.8 9.6 0.00 0.00 0.00 61 1010.2
20260505183418 47 225 7.8 9.6 0.00 0.00 0.00 60 1010.2
20260505182418 47 248 7.0 8.7 0.00 0.00 0.00 60 1010.2
20260505181419 47 225 8.7 10.4 0.00 0.00 0.00 58 1010.2
20260505180418 48 248 5.2 6.1 0.00 0.00 0.00 57 1010.3
20260505175418 48 248 9.6 11.3 0.00 0.00 0.00 55 1010.3
20260505174418 48 248 8.7 11.3 0.00 0.00 0.00 57 1010.2
20260505173418 48 225 7.8 10.4 0.00 0.00 0.00 55 1010.3
20260505172438 48 248 9.6 11.3 0.00 0.00 0.00 54 1010.3
20260505171420 48 248 10.4 12.2 0.00 0.00 0.00 56 1010.2
20260505170420 48 203 8.7 10.4 0.00 0.00 0.00 54 1010.2
20260505165440 49 248 11.3 12.2 0.00 0.00 0.00 51 1010.2
20260505164419 49 248 8.7 10.4 0.00 0.00 0.00 49 1010.3
20260505163420 50 270 8.7 12.2 0.00 0.00 0.00 51 1010.3
20260505162419 49 248 10.4 12.2 0.00 0.00 0.00 52 1010.4
20260505161420 50 248 9.6 12.2 0.00 0.00 0.00 50 1010.4
20260505160439 49 270 8.7 12.2 0.00 0.00 0.00 52 1010.3
20260505152419 49 248 7.8 11.3 0.00 0.00 0.00 48 1010.4
20260505151419 49 270 7.8 10.4 0.00 0.00 0.00 46 1010.4
20260505150419 50 248 9.6 12.2 0.00 0.00 0.00 46 1010.4
20260505140439 54 293 7.8 10.4 0.00 0.00 0.00 40 1010.4
20260505124419 53 270 7.8 10.4 0.00 0.00 0.00 41 1010.5
20260505123438 53 293 10.4 13.0 0.00 0.00 0.00 39 1010.6
20260505122438 52 293 8.7 9.6 0.00 0.00 0.00 40 1010.7
20260505121418 52 270 9.6 13.9 0.00 0.00 0.00 41 1010.6
20260505120418 52 293 12.2 13.9 0.00 0.00 0.00 41 1010.7
20260505115418 53 293 10.4 12.2 0.00 0.00 0.00 40 1010.6
20260505114418 52 293 6.1 8.7 0.00 0.00 0.00 43 1010.6
20260505113438 53 293 11.3 13.0 0.00 0.00 0.00 44 1010.6
20260505112418 53 293 8.7 9.6 0.00 0.00 0.00 44 1010.7
20260505111420 53 293 9.6 12.2 0.00 0.00 0.00 43 1010.7
20260505110419 53 315 7.8 10.4 0.00 0.00 0.00 44 1010.7
20260505101440 52 315 8.7 11.3 0.00 0.00 0.00 47 1010.4
20260505100420 53 315 10.4 11.3 0.00 0.00 0.00 44 1010.3
20260505095500 52 293 8.7 11.3 0.00 0.00 0.00 44 1010.3
20260505094419 52 293 7.0 11.3 0.00 0.00 0.00 45 1010.3
20260505093419 52 293 9.6 11.3 0.00 0.00 0.00 45 1010.3
20260505092420 51 293 12.2 13.0 0.00 0.00 0.00 45 1010.2
20260505091420 53 315 9.6 13.0 0.00 0.00 0.00 43 1010.3
20260505090419 52 315 11.3 13.0 0.00 0.00 0.00 44 1010.3
20260505085419 52 293 7.0 9.6 0.00 0.00 0.00 44 1010.1
20260505084439 51 315 8.7 11.3 0.00 0.00 0.00 46 1009.9
20260505083419 51 293 8.7 12.2 0.00 0.00 0.00 45 1009.9
20260505082439 51 315 6.1 9.6 0.00 0.00 0.00 46 1009.8
20260505081419 51 315 11.3 12.2 0.00 0.00 0.00 47 1009.7
20260505080419 50 315 10.4 13.0 0.00 0.00 0.00 48 1009.6
20260505075419 49 315 10.4 11.3 0.00 0.00 0.00 48 1009.5
20260505074419 49 315 10.4 12.2 0.00 0.00 0.00 49 1009.4
20260505073419 48 315 9.6 10.4 0.00 0.00 0.00 50 1009.4
20260505072419 47 338 11.3 12.2 0.00 0.00 0.00 50 1009.4
20260505071419 47 338 13.0 14.8 0.00 0.00 0.00 52 1009.4
20260505070438 47 0 13.0 15.6 0.00 0.00 0.00 52 1009.4
20260505065419 46 338 10.4 11.3 0.00 0.00 0.00 52 1009.4
20260505064418 46 315 12.2 16.5 0.00 0.00 0.00 53 1009.3
20260505063419 46 338 13.0 15.6 0.00 0.00 0.00 52 1009.1
20260505062438 45 315 13.9 15.6 0.00 0.00 0.00 54 1009.1
20260505061418 45 315 12.2 13.9 0.00 0.00 0.00 52 1009.1
20260505060418 45 338 11.3 13.9 0.00 0.00 0.00 54 1009.1
20260505055418 44 338 13.9 15.6 0.00 0.00 0.00 55 1009.1
20260505054418 44 315 14.8 17.4 0.00 0.00 0.00 55 1008.9
20260505053418 44 338 13.9 15.6 0.00 0.00 0.00 56 1008.9
20260505052420 44 315 13.9 16.5 0.00 0.00 0.00 54 1008.7
20260505051418 44 315 14.8 17.4 0.00 0.00 0.00 56 1008.7
20260505050440 44 315 15.6 17.4 0.00 0.00 0.00 57 1008.6
20260505041419 44 315 13.9 16.5 0.00 0.00 0.00 58 1008.3
20260505040420 44 338 14.8 18.2 0.00 0.00 0.00 63 1008.1
20260505035420 44 315 14.8 16.5 0.00 0.00 0.00 61 1007.9
20260505034440 43 338 15.6 18.2 0.00 0.00 0.00 54 1007.8
20260505033419 43 338 18.2 20.9 0.00 0.00 0.00 58 1007.8
20260505032420 44 315 17.4 20.0 0.00 0.00 0.00 63 1007.8
20260505031419 44 315 15.6 18.2 0.00 0.00 0.00 66 1007.8
20260505030419 44 0 15.6 17.4 0.00 0.00 0.00 65 1007.8
20260505025419 44 338 13.0 15.6 0.00 0.00 0.00 65 1007.8
20260505024419 44 0 14.8 17.4 0.00 0.00 0.00 64 1007.7
20260505023419 44 338 14.8 15.6 0.00 0.00 0.00 61 1007.6
20260505022439 44 315 11.3 13.9 0.00 0.00 0.00 64 1007.6
20260505021418 45 0 12.2 13.0 0.00 0.00 0.00 64 1007.6
20260505020419 45 315 13.9 15.6 0.00 0.00 0.00 66 1007.5
20260505015418 45 315 15.6 17.4 0.00 0.00 0.00 65 1007.5
20260505014419 45 315 14.8 18.2 0.00 0.00 0.00 65 1007.4
20260505013419 46 315 16.5 19.1 0.00 0.00 0.00 66 1007.4
20260505012418 46 315 18.2 21.7 0.00 0.00 0.00 63 1007.3
20260505011418 46 315 18.2 20.9 0.00 0.00 0.00 65 1007.2
20260505010418 46 315 19.1 21.7 0.00 0.00 0.00 67 1007.2
20260505005418 47 315 18.2 21.7 0.00 0.00 0.00 69 1007.1
20260505004459 47 315 16.5 21.7 0.00 0.00 0.00 68 1007.1
20260505003418 47 315 20.0 24.3 0.00 0.00 0.00 71 1006.9
20260505002418 48 315 19.1 22.6 0.00 0.00 0.00 72 1006.7
20260505001418 48 0 19.1 24.3 0.00 0.00 0.00 74 1006.7
20260505000420 48 0 18.2 23.5 0.00 0.00 0.00 73 1006.6
20260504235418 48 293 21.7 24.3 0.00 0.00 0.00 73 1006.7
20260504234438 48 0 23.5 28.7 0.00 0.00 0.00 74 1006.5
20260504233418 48 0 24.3 26.9 0.00 0.00 0.00 73 1006.4
20260504232440 48 0 20.0 27.8 0.00 0.00 0.00 79 1006.6
20260504231438 49 0 20.9 26.9 0.00 0.00 0.00 81 1006.6
20260504230420 49 0 21.7 26.1 0.00 0.00 0.00 81 1006.4
20260504225440 49 0 20.9 25.2 0.00 0.00 0.00 81 1006.3
20260504224420 49 0 24.3 27.8 0.00 0.00 0.00 81 1006.3
20260504223419 49 0 22.6 28.7 0.00 0.00 0.00 81 1006.4
20260504222420 49 0 24.3 28.7 0.00 0.00 0.00 81 1006.3
20260504221439 49 0 20.9 24.3 0.00 0.00 0.00 81 1006.4
20260504220440 49 0 21.7 28.7 0.00 0.00 0.00 81 1006.3
20260504215418 49 0 21.7 27.8 0.00 0.00 0.00 81 1006.1
20260504214418 49 0 20.9 25.2 0.00 0.00 0.00 81 1006.1
20260504213438 49 0 20.9 25.2 0.00 0.00 0.00 81 1006.2
20260504212418 49 0 19.1 25.2 0.00 0.00 0.00 81 1006.2
20260504211420 49 0 22.6 28.7 0.00 0.00 0.00 82 1006.1
20260504210420 50 0 22.6 27.8 0.00 0.00 0.00 82 1006.1
20260504205420 50 0 19.1 24.3 0.00 0.00 0.00 81 1006.0
20260504204440 50 0 19.1 26.9 0.00 0.00 0.00 81 1006.1